When you browse on this site, cookies collect data to enhance your experience and personalize the content and advertising you see.
Visit our Privacy Policy to learn more. By continuing to use the site, you agree to this use of cookies and data.
  • In Romania
  • List of Countries
  • For 7 days
  • Water Temperature
  • Satellite Maps
  • Weather Map
  • Weather Widgets
  • user-avatar
    Login

    Hourly Weather Umag

    Today, 20 February, Wednesday

    Time Temperature Precipitation Wind Pressure Humidity
    00:00 +8°C° 0 mm 1 mps 766 mmHg 93%
    01:00 +8°C° 0 mm 1 mps 767 mmHg 93%
    02:00 +8°C° 0 mm 1 mps 767 mmHg 92%
    03:00 +7°C° 0 mm 1 mps 766 mmHg 92%
    04:00 +7°C° 0 mm 1 mps 766 mmHg 92%
    05:00 +7°C° 0 mm 1 mps 766 mmHg 91%
    06:00 +7°C° 0 mm 1 mps 767 mmHg 91%
    07:00 +6°C° 0 mm 1 mps 767 mmHg 91%
    08:00 +8°C° 0 mm 1 mps 767 mmHg 84%
    09:00 +10°C° 0 mm 1 mps 767 mmHg 76%
    10:00 +11°C° 0 mm 1 mps 767 mmHg 69%
    11:00 +12°C° 0 mm 1 mps 767 mmHg 66%
    12:00 +13°C° 0 mm 1 mps 767 mmHg 63%
    13:00 +14°C° 0 mm 1 mps 767 mmHg 60%
    14:00 +14°C° 0 mm 1 mps 767 mmHg 62%
    15:00 +13°C° 0 mm 1 mps 767 mmHg 64%
    16:00 +13°C° 0 mm 2 mps 767 mmHg 65%
    17:00 +12°C° 0 mm 1 mps 767 mmHg 72%
    18:00 +10°C° 0 mm 1 mps 767 mmHg 79%
    19:00 +9°C° 0 mm 1 mps 768 mmHg 86%
    20:00 +9°C° 0 mm 1 mps 768 mmHg 86%
    21:00 +9°C° 0 mm 1 mps 769 mmHg 86%
    22:00 +9°C° 0 mm 1 mps 769 mmHg 86%
    23:00 +9°C° 0 mm 1 mps 769 mmHg 85%

    Tomorrow, 21 February, Thursday

    Time Temperature Precipitation Wind Pressure Humidity
    00:00 +8°C° 0 mm 1 mps 770 mmHg 84%
    01:00 +8°C° 0 mm 1 mps 770 mmHg 83%
    02:00 +8°C° 0 mm 1 mps 770 mmHg 83%
    03:00 +8°C° 0 mm 1 mps 770 mmHg 82%
    04:00 +7°C° 0 mm 2 mps 770 mmHg 82%
    05:00 +7°C° 0 mm 2 mps 770 mmHg 81%
    06:00 +7°C° 0 mm 2 mps 770 mmHg 80%
    07:00 +7°C° 0 mm 2 mps 770 mmHg 80%
    08:00 +10°C° 0 mm 1 mps 770 mmHg 73%
    09:00 +11°C° 0 mm 1 mps 770 mmHg 66%
    10:00 +13°C° 0 mm 1 mps 770 mmHg 60%
    11:00 +14°C° 0 mm 1 mps 770 mmHg 56%
    12:00 +15°C° 0 mm 2 mps 770 mmHg 53%
    13:00 +17°C° 0 mm 2 mps 770 mmHg 49%
    14:00 +16°C° 0 mm 2 mps 769 mmHg 52%
    15:00 +16°C° 0 mm 2 mps 769 mmHg 54%
    16:00 +15°C° 0 mm 2 mps 769 mmHg 57%
    17:00 +14°C° 0 mm 2 mps 769 mmHg 62%
    18:00 +12°C° 0 mm 1 mps 769 mmHg 68%
    19:00 +11°C° 0 mm 1 mps 770 mmHg 74%
    20:00 +10°C° 0 mm 1 mps 770 mmHg 75%
    21:00 +9°C° 0 mm 0 mps 770 mmHg 75%
    22:00 +9°C° 0 mm 0 mps 770 mmHg 75%
    23:00 +9°C° 0 mm 0 mps 770 mmHg 75%

    Day after tomorrow, 22 February, Friday

    Time Temperature Precipitation Wind Pressure Humidity
    00:00 +9°C° 0 mm 1 mps 770 mmHg 75%
    01:00 +9°C° 0 mm 1 mps 770 mmHg 75%
    02:00 +9°C° 0 mm 1 mps 770 mmHg 75%
    03:00 +9°C° 0 mm 1 mps 769 mmHg 75%
    04:00 +9°C° 0 mm 1 mps 769 mmHg 75%
    05:00 +9°C° 0 mm 1 mps 769 mmHg 77%
    06:00 +8°C° 0 mm 1 mps 769 mmHg 78%
    07:00 +8°C° 0 mm 1 mps 769 mmHg 80%
    08:00 +10°C° 0 mm 1 mps 769 mmHg 74%
    09:00 +12°C° 0 mm 1 mps 769 mmHg 68%
    10:00 +13°C° 0 mm 2 mps 769 mmHg 62%
    11:00 +14°C° 0 mm 2 mps 768 mmHg 58%
    12:00 +15°C° 0 mm 1 mps 768 mmHg 54%
    13:00 +16°C° 0 mm 1 mps 768 mmHg 50%
    14:00 +16°C° 0 mm 1 mps 768 mmHg 51%
    15:00 +16°C° 0 mm 1 mps 768 mmHg 52%
    16:00 +16°C° 0 mm 2 mps 768 mmHg 52%
    17:00 +14°C° 0 mm 2 mps 768 mmHg 56%
    18:00 +13°C° 0 mm 2 mps 769 mmHg 59%
    19:00 +12°C° 0 mm 1 mps 769 mmHg 63%
    20:00 +11°C° 0 mm 1 mps 770 mmHg 63%
    21:00 +11°C° 0 mm 1 mps 771 mmHg 63%
    22:00 +10°C° 0 mm 2 mps 771 mmHg 63%
    23:00 +9°C° 0 mm 2 mps 772 mmHg 65%

    23 February, Saturday

    Time Temperature Precipitation Wind Pressure Humidity
    00:00 +9°C° 0 mm 2 mps 772 mmHg 68%
    01:00 +8°C° 0 mm 2 mps 773 mmHg 70%
    02:00 +7°C° 0 mm 3 mps 773 mmHg 68%
    03:00 +5°C° 0 mm 3 mps 773 mmHg 66%
    04:00 +5°C° 0 mm 4 mps 773 mmHg 64%
    05:00 +3°C° 0 mm 5 mps 773 mmHg 61%
    06:00 +2°C° 0 mm 5 mps 773 mmHg 59%
    07:00 +2°C° 0 mm 5 mps 774 mmHg 56%
    08:00 +3°C° 0 mm 6 mps 774 mmHg 51%
    09:00 +3°C° 0 mm 6 mps 774 mmHg 45%
    10:00 +4°C° 0 mm 7 mps 774 mmHg 39%
    11:00 +5°C° 0 mm 7 mps 775 mmHg 36%
    12:00 +6°C° 0 mm 7 mps 775 mmHg 32%
    13:00 +6°C° 0 mm 7 mps 775 mmHg 28%
    14:00 +7°C° 0 mm 6 mps 775 mmHg 29%
    15:00 +7°C° 0 mm 5 mps 774 mmHg 29%
    16:00 +7°C° 0 mm 4 mps 774 mmHg 29%
    17:00 +6°C° 0 mm 4 mps 775 mmHg 32%
    18:00 +4°C° 0 mm 4 mps 775 mmHg 35%
    19:00 +3°C° 0 mm 4 mps 776 mmHg 38%
    20:00 +1°C° 0 mm 5 mps 776 mmHg 38%
    21:00 +1°C° 0 mm 5 mps 776 mmHg 37%
    22:00 0°C° 0 mm 5 mps 777 mmHg 37%
    23:00 0°C° 0 mm 5 mps 777 mmHg 37%

    24 February, Sunday

    Time Temperature Precipitation Wind Pressure Humidity
    00:00 0°C° 0 mm 5 mps 777 mmHg 36%
    01:00 0°C° 0 mm 5 mps 777 mmHg 36%
    02:00 0°C° 0 mm 5 mps 776 mmHg 35%
    03:00 0°C° 0 mm 4 mps 776 mmHg 35%
    04:00 -1°C° 0 mm 4 mps 776 mmHg 34%
    05:00 -1°C° 0 mm 4 mps 776 mmHg 35%
    06:00 0°C° 0 mm 3 mps 776 mmHg 35%
    07:00 0°C° 0 mm 3 mps 776 mmHg 35%
    08:00 +2°C° 0 mm 3 mps 776 mmHg 32%
    09:00 +3°C° 0 mm 3 mps 776 mmHg 29%
    10:00 +5°C° 0 mm 3 mps 777 mmHg 26%
    11:00 +6°C° 0 mm 4 mps 776 mmHg 26%
    12:00 +7°C° 0 mm 4 mps 776 mmHg 25%
    13:00 +8°C° 0 mm 4 mps 775 mmHg 25%
    14:00 +9°C° 0 mm 3 mps 775 mmHg 28%
    15:00 +9°C° 0 mm 3 mps 774 mmHg 31%
    16:00 +9°C° 0 mm 3 mps 774 mmHg 34%
    17:00 +8°C° 0 mm 3 mps 774 mmHg 39%
    18:00 +5°C° 0 mm 3 mps 775 mmHg 44%
    19:00 +4°C° 0 mm 3 mps 775 mmHg 49%
    20:00 +3°C° 0 mm 3 mps 775 mmHg 47%
    21:00 +4°C° 0 mm 2 mps 776 mmHg 45%
    22:00 +3°C° 0 mm 2 mps 776 mmHg 44%
    23:00 +3°C° 0 mm 2 mps 776 mmHg 45%

    25 February, Monday

    Time Temperature Precipitation Wind Pressure Humidity
    00:00 +3°C° 0 mm 2 mps 776 mmHg 46%
    01:00 +2°C° 0 mm 2 mps 776 mmHg 47%
    02:00 +2°C° 0 mm 2 mps 776 mmHg 48%
    03:00 +2°C° 0 mm 2 mps 776 mmHg 49%
    04:00 +1°C° 0 mm 3 mps 775 mmHg 50%
    05:00 +1°C° 0 mm 3 mps 775 mmHg 51%
    06:00 +1°C° 0 mm 3 mps 775 mmHg 52%
    07:00 +1°C° 0 mm 3 mps 775 mmHg 53%
    08:00 +3°C° 0 mm 3 mps 775 mmHg 48%
    09:00 +5°C° 0 mm 3 mps 775 mmHg 44%
    10:00 +8°C° 0 mm 3 mps 775 mmHg 40%
    11:00 +9°C° 0 mm 3 mps 774 mmHg 38%
    12:00 +11°C° 0 mm 3 mps 774 mmHg 36%
    13:00 +12°C° 0 mm 3 mps 773 mmHg 35%
    14:00 +12°C° 0 mm 4 mps 773 mmHg 37%
    15:00 +12°C° 0 mm 4 mps 773 mmHg 39%
    16:00 +12°C° 0 mm 4 mps 773 mmHg 42%
    17:00 +10°C° 0 mm 4 mps 773 mmHg 49%
    18:00 +9°C° 0 mm 3 mps 773 mmHg 56%
    19:00 +7°C° 0 mm 3 mps 773 mmHg 62%
    20:00 +7°C° 0 mm 3 mps 774 mmHg 63%
    21:00 +7°C° 0 mm 2 mps 774 mmHg 64%
    22:00 +6°C° 0 mm 2 mps 774 mmHg 65%
    23:00 +6°C° 0 mm 2 mps 774 mmHg 67%
    Show more